Temp
76 85 87 79 61 59 57 64 77 78 82 92 92 86 81 83 81 67 84 85 82 78 79 81 80 80 80 80 79 79 79 79 79 79 79 79 79 79 79 79 79 80 81 81 81 80 80 80 80
78 85 79 72 56 50 59 74 74 81 89 87 90 89 84 80 86 83 82 84 83 79 79 80 80 80 80 80 79 79 79 79 79 79 79 79 79 79 79 79 80 80 81 81 81 80 80 80 80
79 84 66 61 56 55 59 76 79 86 90 88 85 93 88 82 88 87 87 85 81 79 79 79 80 80 80 80 79 79 79 79 79 79 79 79 78 78 78 79 79 80 81 81 81 80 80 80 79
78 73 69 57 56 66 70 77 83 86 89 92 90 82 89 94 92 90 88 86 82 81 79 79 80 80 80 80 79 79 79 79 79 79 79 78 78 78 78 79 79 80 80 81 80 79 79 79 79
74 66 56 54 60 70 78 83 86 82 85 90 89 81 82 91 94 90 88 88 83 79 77 78 79 79 80 80 79 79 79 78 78 78 79 78 78 78 78 78 79 79 79 79 79 79 78 78 78
63 65 50 52 62 73 80 86 82 83 87 89 88 83 80 90 91 90 91 88 88 78 77 78 79 79 79 79 79 78 78 78 78 78 78 78 78 78 78 78 79 79 79 79 79 78 78 77 77
61 58 54 58 63 70 79 87 82 83 85 86 88 79 81 87 89 92 92 91 83 81 77 76 77 79 79 78 78 78 78 78 77 77 77 77 77 77 78 78 78 78 78 78 78 77 77 77 77
68 61 56 63 64 67 81 86 88 86 86 95 96 81 77 84 91 90 91 85 83 81 79 75 75 76 76 77 78 78 78 78 77 77 77 77 77 77 78 77 77 78 78 78 77 77 77 77 76
75 59 57 60 65 71 81 81 88 92 88 91 92 87 89 92 90 89 87 84 83 81 79 77 75 75 75 76 78 78 79 78 77 77 77 76 73 74 76 76 77 78 78 77 77 77 77 76 76
65 59 61 70 74 74 81 81 86 84 83 83 88 91 94 94 90 85 82 85 82 79 79 80 78 77 77 81 77 75 77 76 76 76 75 73 71 71 76 76 78 78 77 77 77 77 77 77 71
67 61 67 73 77 80 80 81 86 80 75 83 83 86 91 91 87 85 84 80 84 82 83 82 80 79 78 80 75 75 76 75 74 75 73 71 74 73 75 71 75 71 76 73 74 73 73 72 72
60 70 73 74 77 79 78 84 83 78 78 87 88 88 86 82 81 81 78 77 79 85 84 84 83 81 79 77 75 76 76 76 75 75 74 72 70 71 71 73 72 71 72 70 70 71 73 72 75
66 70 76 78 76 76 78 76 78 77 83 86 88 88 85 80 81 83 85 81 80 77 78 85 84 83 82 78 78 78 77 77 76 75 75 74 74 72 75 74 74 74 74 72 73 73 74 74 75
71 72 74 74 75 74 72 74 73 77 82 83 85 82 82 83 83 84 84 82 80 81 83 81 82 83 82 79 80 79 79 78 77 77 77 76 76 75 76 77 76 76 77 77 77 77 76 76 76
73 65 70 73 72 69 73 68 70 77 82 79 81 83 82 83 82 82 84 81 81 81 79 80 79 83 84 76 82 80 80 80 79 79 78 78 76 76 74 77 75 77 79 78 78 77 76 75 76
63 61 52 66 72 74 70 58 72 77 76 75 79 81 81 79 82 84 83 83 82 78 79 79 85 81 85 84 80 80 81 78 82 80 78 79 78 77 77 77 79 77 75 76 76 76 73 72 70
57 49 54 62 72 72 68 60 72 77 77 74 74 75 79 78 78 79 83 82 82 80 81 77 78 83 82 82 78 77 78 79 80 81 79 79 79 79 80 78 77 74 73 72 72 71 71 70 70
51 52 58 58 69 70 65 64 70 75 74 74 73 73 75 76 77 80 80 82 78 78 77 78 79 77 80 78 77 76 76 76 77 76 77 77 79 79 78 77 74 74 77 76 74 73 70 70 73
64 60 60 65 72 68 66 65 68 71 70 69 70 72 72 74 77 79 80 77 76 75 76 75 76 75 73 74 74 73 78 75 75 77 78 77 78 79 79 77 77 77 73 78 77 75 71 72 70
64 59 58 64 70 65 61 62 68 69 68 69 69 70 71 72 74 77 76 75 75 73 74 75 75 75 76 72 73 73 72 73 72 74 79 81 77 79 79 80 78 78 79 76 75 74 72 74 72
62 58 57 58 65 65 61 55 61 68 69 72 71 71 71 72 72 74 76 73 71 71 71 72 74 73 73 74 71 71 72 72 71 72 78 80 81 79 79 78 79 78 79 78 77 73 72 73 72
54 66 65 63 56 45 60 42 56 62 66 70 71 69 70 71 73 72 73 70 71 72 72 71 71 72 73 72 69 68 68 68 69 69 73 73 76 81 77 79 78 78 79 78 71 74 75 73 72
60 68 63 62 54 49 54 44 51 61 59 66 71 70 69 71 72 73 72 71 71 72 70 68 68 70 70 71 70 67 66 67 68 70 70 70 74 77 81 78 75 75 73 72 70 73 77 78 78
70 62 59 55 49 38 49 47 49 57 61 64 68 74 72 71 71 70 71 71 69 70 69 68 68 67 69 69 69 67 66 66 65 67 67 67 69 69 73 78 75 74 72 74 70 71 74 74 73
60 48 37 35 36 36 54 49 54 61 68 71 72 69 69 70 67 67 67 68 69 68 68 68 68 67 67 68 67 67 67 66 65 66 66 68 72 71 69 70 71 69 66 66 64 65 62 67 70
56 50 38 31 32 40 55 47 55 67 69 72 71 69 69 66 65 66 67 67 68 68 68 69 68 67 67 67 66 66 67 65 65 65 66 69 70 71 70 69 69 67 66 67 67 66 65 65 69
56 48 56 44 44 37 43 51 60 67 68 68 70 69 66 64 65 67 66 66 66 67 66 67 67 65 65 66 66 65 65 65 63 64 64 64 68 72 74 72 69 64 64 64 66 67 65 67 64
59 63 47 44 30 29 41 46 48 55 57 61 66 64 64 65 66 65 64 65 65 64 65 66 64 64 64 64 63 64 63 64 63 62 62 62 63 64 66 68 68 65 63 62 61 61 61 60 59
54 52 52 49 42 30 29 41 57 55 56 54 58 64 60 61 63 63 64 65 65 64 63 62 63 64 62 63 63 63 64 65 65 61 61 62 62 62 63 63 64 66 62 62 61 61 62 61 60
56 51 49 38 35 38 36 40 55 56 58 59 57 61 62 64 64 63 66 64 63 64 65 63 61 62 63 64 62 62 61 63 62 61 61 61 59 59 61 62 63 61 66 62 62 61 63 61 62
MSLP
1010.35 1009.88 1009.60 1009.65 1010.66 1009.39 1008.14 1006.10 1004.06 1002.17 1000.93 999.48 998.45 999.52 1000.83 1001.19 1002.25 1004.60 1004.96 1005.78 1006.60 1008.02 1007.97 1008.00 1008.47 1009.17 1009.87 1010.41 1010.88 1011.26 1011.70 1012.15 1012.54 1012.86 1013.25 1013.60 1013.94 1014.32 1014.58 1014.76 1015.00 1015.24 1015.54 1015.73 1015.91 1016.00 1016.12 1016.16 1016.18
1010.42 1010.12 1009.83 1009.65 1009.73 1009.31 1006.97 1004.92 1003.25 1001.52 999.70 998.96 998.54 999.12 1000.46 1002.09 1002.82 1003.78 1004.38 1005.96 1006.75 1007.83 1008.22 1008.24 1008.55 1009.12 1009.95 1010.50 1010.96 1011.40 1011.82 1012.22 1012.71 1013.08 1013.42 1013.75 1014.09 1014.44 1014.70 1014.85 1015.14 1015.35 1015.61 1015.80 1015.90 1016.05 1016.16 1016.27 1016.28
1010.63 1010.47 1010.97 1009.82 1009.05 1008.34 1006.25 1003.52 1002.25 1000.65 999.37 998.61 998.66 999.06 1000.26 1001.82 1002.67 1003.32 1003.74 1005.61 1006.85 1007.85 1008.35 1008.30 1008.57 1009.04 1009.79 1010.52 1010.97 1011.43 1011.93 1012.33 1012.69 1013.14 1013.51 1013.83 1014.21 1014.54 1014.82 1015.02 1015.18 1015.36 1015.55 1015.69 1015.85 1016.01 1016.14 1016.22 1016.33
1010.28 1010.19 1010.40 1009.23 1008.62 1006.85 1005.31 1003.11 1001.90 1000.78 999.62 998.89 998.89 1000.05 1000.80 1001.40 1001.77 1002.70 1004.34 1005.57 1006.62 1008.19 1008.40 1008.49 1008.74 1009.10 1009.74 1010.33 1010.98 1011.42 1011.96 1012.47 1012.90 1013.31 1013.67 1014.04 1014.41 1014.68 1014.91 1015.15 1015.33 1015.50 1015.66 1015.85 1015.97 1016.03 1016.12 1016.15 1016.21
1010.30 1010.40 1010.09 1009.09 1007.74 1006.11 1004.37 1002.60 1001.55 1000.74 999.95 999.55 999.39 1000.88 1001.38 1001.78 1002.03 1002.97 1004.22 1005.53 1006.82 1008.13 1008.34 1008.57 1008.81 1009.23 1009.75 1010.31 1010.79 1011.42 1011.90 1012.41 1012.87 1013.35 1013.78 1014.14 1014.39 1014.63 1014.79 1014.99 1015.20 1015.46 1015.69 1015.92 1016.03 1016.05 1016.15 1016.13 1016.12
1010.35 1009.79 1009.79 1008.76 1007.24 1005.39 1003.41 1001.96 1001.34 1000.56 999.91 999.84 1000.08 1000.81 1002.10 1002.27 1002.50 1003.41 1004.09 1005.30 1006.51 1007.89 1008.44 1008.68 1009.04 1009.46 1009.85 1010.32 1010.78 1011.28 1011.87 1012.39 1012.86 1013.21 1013.61 1014.00 1014.34 1014.60 1014.81 1015.03 1015.12 1015.28 1015.43 1015.62 1015.77 1015.93 1016.02 1015.99 1015.94
1009.86 1009.65 1009.17 1008.26 1006.75 1004.66 1002.60 1001.53 1000.57 1000.58 1000.07 1000.05 1000.07 1001.18 1002.57 1002.85 1002.81 1003.22 1003.76 1004.99 1006.42 1007.36 1008.29 1008.93 1009.26 1009.47 1009.86 1010.35 1010.83 1011.22 1011.66 1012.13 1012.64 1013.07 1013.38 1013.76 1014.17 1014.45 1014.67 1014.90 1015.02 1015.14 1015.29 1015.46 1015.60 1015.72 1015.83 1015.81 1015.77
1009.15 1009.41 1008.71 1007.53 1006.03 1004.15 1002.08 1001.37 1000.09 1000.71 1000.50 1000.86 1000.36 1001.35 1002.77 1002.95 1002.85 1003.20 1003.85 1005.23 1006.27 1007.20 1007.90 1008.83 1009.41 1009.76 1010.07 1010.42 1010.76 1011.26 1011.68 1012.08 1012.51 1012.98 1013.34 1013.54 1013.84 1014.21 1014.48 1014.69 1014.85 1014.99 1015.21 1015.45 1015.57 1015.67 1015.76 1015.78 1015.71
1008.45 1008.53 1007.51 1006.61 1005.39 1003.44 1002.00 1000.97 1000.20 1001.01 1001.18 1002.41 1001.52 1001.89 1002.14 1002.74 1003.35 1003.34 1004.18 1005.50 1006.28 1007.22 1007.74 1008.57 1009.30 1009.74 1010.18 1010.50 1010.84 1011.18 1011.55 1011.88 1012.19 1012.70 1013.19 1013.55 1013.80 1013.96 1014.13 1014.45 1014.60 1014.77 1014.92 1015.06 1015.29 1015.46 1015.48 1015.48 1015.45
1007.56 1007.23 1006.32 1005.67 1004.51 1002.91 1002.25 1001.67 1001.01 1001.09 1001.12 1001.09 1001.59 1002.17 1002.18 1002.25 1002.95 1003.60 1004.15 1005.18 1005.97 1006.91 1007.71 1008.15 1008.97 1009.74 1010.17 1010.43 1010.83 1011.24 1011.56 1012.00 1012.24 1012.56 1012.93 1013.31 1013.65 1013.85 1013.94 1014.20 1014.33 1014.52 1014.68 1014.83 1014.94 1015.02 1015.00 1014.97 1014.92
1006.86 1006.19 1005.71 1004.73 1003.79 1002.88 1002.36 1001.81 1001.42 1000.73 1001.30 1001.31 1001.65 1001.98 1001.78 1002.23 1002.75 1003.43 1003.95 1004.58 1004.94 1005.91 1006.71 1007.52 1008.59 1009.51 1010.11 1010.27 1010.87 1011.25 1011.52 1011.91 1012.19 1012.42 1012.71 1013.08 1013.32 1013.61 1013.75 1014.04 1014.19 1014.41 1014.40 1014.51 1014.54 1014.62 1014.70 1014.64 1014.74
1006.46 1005.36 1004.83 1004.11 1003.35 1002.61 1002.16 1001.77 1001.02 1001.03 1001.02 1001.08 1001.57 1002.12 1002.18 1002.73 1003.04 1003.84 1004.63 1005.00 1005.56 1006.13 1006.27 1006.91 1007.74 1008.29 1009.41 1010.33 1010.70 1010.83 1011.08 1011.53 1011.85 1012.12 1012.42 1012.78 1013.05 1013.28 1013.43 1013.63 1013.85 1014.05 1014.10 1014.32 1014.32 1014.33 1014.03 1014.01 1013.93
1005.37 1004.48 1003.97 1003.31 1002.81 1002.44 1002.23 1001.87 1001.22 1001.57 1001.49 1001.66 1001.55 1002.03 1002.37 1002.89 1003.08 1003.30 1003.70 1004.74 1005.20 1005.45 1005.80 1005.62 1007.30 1007.28 1008.09 1009.15 1010.44 1010.54 1010.66 1010.67 1010.90 1011.35 1011.91 1012.21 1012.41 1012.51 1012.57 1012.98 1013.15 1013.28 1013.34 1013.48 1013.54 1013.49 1013.48 1013.49 1013.32
1003.94 1003.59 1003.10 1002.60 1002.37 1002.16 1002.16 1001.86 1001.69 1001.61 1001.57 1001.79 1001.96 1002.15 1002.51 1002.98 1003.24 1003.21 1003.48 1003.82 1004.88 1004.80 1005.50 1006.40 1006.97 1006.97 1007.14 1008.20 1008.84 1009.64 1009.73 1010.01 1010.52 1010.74 1010.73 1011.06 1011.47 1011.62 1011.83 1012.08 1012.28 1012.22 1012.31 1012.43 1012.57 1012.67 1012.69 1012.63 1012.50
1003.29 1003.23 1002.42 1002.04 1001.89 1001.90 1001.77 1001.91 1001.66 1001.86 1001.86 1002.01 1002.26 1002.21 1002.60 1002.85 1003.30 1003.62 1003.20 1003.64 1004.16 1004.29 1005.27 1006.08 1006.08 1006.22 1006.27 1007.28 1007.85 1008.69 1009.29 1009.14 1009.76 1009.86 1010.13 1010.44 1010.82 1011.13 1011.27 1011.40 1011.50 1011.50 1011.47 1011.63 1011.77 1011.83 1011.94 1011.90 1011.49
1002.97 1002.66 1002.44 1001.89 1001.88 1001.67 1002.12 1002.02 1001.77 1001.64 1002.09 1002.29 1002.31 1002.53 1002.57 1002.88 1003.14 1003.29 1003.45 1003.36 1003.70 1004.51 1004.72 1005.01 1005.28 1005.90 1006.23 1006.44 1007.07 1007.99 1008.62 1008.69 1008.87 1009.17 1009.57 1009.83 1010.20 1010.40 1010.68 1010.88 1010.83 1010.80 1010.95 1011.09 1011.28 1011.28 1011.41 1011.72 1011.89
1002.96 1002.89 1002.48 1002.20 1001.69 1001.71 1001.80 1001.88 1001.66 1001.58 1001.85 1002.05 1002.26 1002.40 1002.67 1002.98 1003.28 1003.12 1003.09 1003.20 1003.51 1004.10 1004.88 1005.69 1005.76 1005.72 1006.09 1006.45 1007.04 1007.25 1007.78 1008.17 1008.54 1008.57 1008.76 1008.99 1009.45 1009.77 1009.91 1010.18 1010.15 1010.20 1010.84 1010.98 1011.04 1011.13 1011.15 1011.58 1011.66
1003.53 1002.92 1002.68 1002.34 1001.44 1001.26 1001.46 1001.56 1001.53 1001.39 1001.48 1001.62 1001.87 1002.25 1002.60 1003.16 1003.17 1002.91 1003.00 1003.20 1003.53 1003.92 1004.63 1004.83 1005.22 1005.85 1005.98 1006.41 1006.79 1007.13 1007.40 1007.82 1008.05 1008.46 1008.42 1008.66 1008.87 1009.21 1009.45 1009.65 1009.72 1009.99 1010.27 1010.24 1010.30 1010.46 1010.60 1010.82 1011.00
1002.92 1002.58 1002.29 1001.30 1000.56 1000.79 1000.87 1001.05 1001.27 1001.22 1001.20 1001.57 1001.77 1002.40 1002.59 1003.04 1002.90 1002.56 1002.80 1003.32 1003.61 1003.90 1004.28 1004.89 1005.45 1005.95 1006.69 1006.98 1007.24 1007.30 1007.48 1007.59 1007.73 1007.99 1008.07 1008.26 1008.31 1008.61 1008.82 1008.88 1008.95 1009.08 1009.54 1009.43 1009.74 1010.01 1010.32 1010.70 1010.76
1002.32 1002.18 1001.86 1001.09 1000.45 1000.53 1000.54 1000.72 1000.64 1000.89 1001.20 1001.46 1001.63 1002.03 1002.24 1002.60 1002.63 1002.71 1002.98 1003.33 1003.57 1004.06 1004.29 1004.67 1005.13 1005.72 1006.10 1007.02 1007.22 1007.36 1007.56 1007.58 1007.35 1007.61 1007.69 1007.30 1007.53 1007.62 1008.01 1007.91 1008.11 1008.41 1008.53 1008.78 1009.09 1009.53 1009.86 1010.03 1010.20
1001.75 1001.74 1001.61 1001.65 1000.98 1000.88 1001.26 1001.41 1001.31 1000.96 1000.83 1001.00 1001.18 1001.31 1001.63 1002.04 1002.47 1002.53 1003.02 1003.28 1003.84 1004.42 1004.58 1004.82 1005.12 1005.48 1005.93 1006.48 1007.06 1007.38 1007.55 1007.57 1007.53 1007.57 1007.24 1007.03 1007.11 1007.16 1007.21 1007.27 1007.49 1007.59 1007.85 1007.85 1008.22 1008.86 1009.29 1009.76 1009.54
1001.40 1001.30 1001.33 1002.06 1002.32 1002.58 1001.97 1002.39 1001.69 1001.11 1000.89 1000.84 1000.81 1000.98 1001.24 1001.46 1001.76 1002.23 1002.71 1003.26 1003.88 1004.20 1004.38 1004.84 1005.33 1005.84 1005.92 1006.25 1007.15 1007.78 1008.05 1008.04 1007.61 1007.56 1007.00 1007.07 1006.78 1006.47 1006.19 1006.74 1006.63 1007.06 1007.30 1007.40 1008.02 1008.34 1008.40 1008.22 1008.75
1001.20 1001.35 1002.01 1002.51 1003.17 1003.15 1002.93 1003.31 1002.29 1001.50 1001.10 1000.63 1000.40 1000.48 1000.51 1000.79 1001.39 1002.02 1002.65 1003.12 1003.98 1004.17 1004.72 1005.31 1005.88 1006.28 1006.47 1006.80 1007.12 1007.54 1007.85 1007.88 1007.78 1007.42 1007.24 1006.89 1006.38 1006.01 1005.80 1005.80 1006.27 1006.71 1006.68 1007.87 1007.87 1007.93 1007.63 1006.89 1007.33
1001.13 1001.73 1002.48 1003.12 1003.87 1004.27 1004.00 1003.60 1002.71 1001.64 1000.50 999.96 999.43 999.44 999.79 1000.40 1001.15 1002.05 1002.73 1003.28 1003.99 1004.31 1004.83 1005.46 1005.88 1006.40 1006.77 1007.05 1007.34 1007.67 1007.74 1007.66 1007.57 1007.39 1007.21 1006.78 1006.11 1006.08 1005.79 1005.58 1005.75 1006.05 1006.32 1006.78 1007.46 1006.77 1006.87 1005.74 1005.75
1001.72 1002.39 1004.22 1004.91 1005.21 1004.85 1004.24 1003.67 1002.55 1000.66 1000.11 999.65 998.83 998.88 999.84 1000.88 1001.95 1002.65 1003.22 1003.69 1004.00 1004.59 1004.99 1005.41 1005.78 1006.36 1006.61 1006.98 1007.22 1007.42 1007.54 1007.70 1007.77 1007.51 1007.05 1006.57 1006.00 1005.53 1005.43 1005.45 1005.26 1005.52 1006.50 1007.05 1007.69 1007.75 1007.78 1006.44 1006.41
1002.15 1003.37 1004.81 1005.56 1006.18 1005.81 1004.68 1003.32 1001.98 1000.82 1000.13 999.28 999.72 999.49 1000.52 1001.92 1002.65 1003.21 1003.77 1004.13 1004.55 1004.95 1005.15 1005.30 1005.67 1006.00 1006.13 1006.38 1006.69 1006.89 1007.07 1007.38 1007.43 1007.26 1007.01 1006.58 1006.06 1005.52 1005.15 1005.02 1005.02 1004.94 1005.39 1005.72 1006.07 1006.67 1006.10 1007.95 1006.81
1002.72 1003.25 1004.03 1005.34 1006.24 1006.48 1005.62 1004.10 1002.47 1001.35 1000.58 1001.05 1000.92 1001.16 1002.04 1002.56 1003.15 1003.57 1004.18 1004.49 1004.85 1005.15 1005.42 1005.48 1005.74 1006.04 1006.24 1006.52 1006.75 1006.97 1006.92 1007.05 1007.20 1007.09 1006.91 1006.59 1006.24 1005.69 1005.00 1004.62 1004.69 1004.65 1004.86 1005.26 1005.10 1005.46 1006.43 1007.14 1007.35
1003.19 1003.54 1004.46 1005.69 1007.06 1007.24 1006.20 1004.96 1004.00 1003.49 1003.22 1002.86 1002.68 1003.27 1003.44 1003.53 1003.86 1004.21 1004.62 1004.87 1005.09 1005.30 1005.40 1005.41 1005.82 1006.13 1006.41 1006.76 1007.07 1007.12 1007.07 1006.95 1007.01 1006.95 1006.88 1006.52 1006.20 1005.91 1005.58 1004.99 1004.59 1004.43 1004.14 1004.07 1004.56 1004.91 1005.50 1006.06 1006.10
1004.13 1004.65 1005.36 1006.36 1007.41 1008.08 1007.41 1005.54 1004.36 1004.45 1004.36 1004.16 1004.74 1004.39 1004.60 1004.69 1004.87 1004.69 1004.83 1004.86 1005.30 1005.66 1005.91 1006.10 1006.16 1006.44 1006.67 1006.70 1006.85 1006.94 1006.90 1006.65 1006.44 1006.72 1006.68 1006.42 1006.18 1006.03 1005.61 1005.13 1004.81 1004.30 1003.96 1003.63 1003.84 1004.18 1004.64 1004.85 1005.28
1004.82 1005.29 1006.05 1007.18 1008.00 1007.79 1007.42 1006.08 1005.05 1004.96 1004.85 1004.79 1004.63 1005.19 1005.03 1004.59 1004.60 1004.66 1004.58 1004.84 1005.33 1005.64 1005.90 1006.28 1006.59 1006.69 1006.53 1006.32 1006.46 1006.68 1006.81 1006.79 1006.78 1006.77 1006.39 1006.13 1006.17 1006.08 1005.82 1005.22 1004.67 1004.35 1003.63 1003.38 1003.41 1003.23 1003.44 1003.73 1004.08
Wind_Speed
8 10 7 3 1 2 7 9 11 19 17 11 6 11 10 8 8 5 10 16 22 14 14 18 22 20 18 16 16 16 16 15 15 16 15 15 15 14 13 13 12 12 12 11 10 10 9 8 8
5 7 3 3 3 4 9 15 19 17 22 1 6 9 18 12 8 12 14 18 19 15 11 15 22 21 18 16 16 16 16 16 15 15 15 15 14 14 13 12 12 12 11 10 10 9 8 7 6
3 5 1 3 4 10 9 19 10 4 8 5 3 11 5 8 16 10 22 22 18 14 11 14 21 22 20 17 16 16 16 16 16 15 15 15 14 13 12 11 11 11 11 10 9 9 7 6 4
2 3 4 2 10 13 21 20 22 11 5 5 5 9 6 12 9 14 24 21 19 12 11 16 19 20 20 19 16 16 16 15 15 14 14 14 13 12 11 10 10 10 9 9 8 7 6 5 4
2 3 4 5 11 12 18 21 20 6 10 6 5 4 7 5 23 27 24 20 19 14 12 13 18 18 19 18 19 16 17 16 16 15 14 14 14 13 12 11 11 10 9 8 7 6 5 4 3
3 5 3 8 17 18 19 21 4 2 11 11 3 9 5 8 15 22 23 22 20 15 12 12 17 18 17 17 17 18 16 16 16 16 16 15 14 13 12 11 11 11 10 9 8 6 5 5 3
7 4 7 9 16 16 22 11 6 5 8 8 9 4 7 8 8 16 19 20 19 18 15 10 9 14 17 17 16 17 18 18 16 16 17 16 14 13 13 12 12 11 11 10 9 8 7 6 6
6 3 9 13 15 20 19 14 9 7 5 8 10 1 7 5 9 10 14 19 18 16 16 13 10 9 9 10 17 17 17 17 16 16 15 15 16 14 14 12 11 12 11 9 9 8 7 7 8
11 9 13 17 17 18 7 8 1 17 1 5 9 11 12 12 6 8 12 16 15 14 14 13 11 10 9 9 11 16 19 19 18 16 16 12 6 9 11 11 13 12 11 11 10 9 9 9 11
8 11 17 11 16 18 13 4 11 10 5 4 6 11 5 11 9 9 6 17 18 16 15 14 13 10 9 9 10 9 10 8 8 9 10 7 6 6 9 10 14 14 12 11 11 11 12 11 5
13 15 9 16 20 20 17 7 12 7 3 6 6 9 11 6 6 6 6 5 20 20 15 17 15 11 9 9 7 5 5 5 6 9 9 6 6 6 6 4 6 4 11 5 7 7 6 7 5
11 15 16 15 13 18 14 8 6 4 8 6 4 3 8 9 6 4 3 1 3 14 17 18 17 17 12 5 7 8 7 6 6 8 10 7 4 5 5 5 6 6 5 7 6 5 8 8 9
17 17 16 18 13 15 9 7 3 7 5 6 3 7 7 3 3 5 4 6 9 8 10 18 18 17 13 13 7 8 8 8 9 8 10 8 8 6 8 7 7 7 7 8 8 8 8 9 9
13 17 18 12 17 12 7 5 3 5 4 7 7 2 4 5 5 7 7 6 8 14 15 11 17 13 14 11 13 10 9 11 9 9 10 13 9 8 7 9 9 10 9 9 9 10 9 10 9
14 9 11 11 6 6 4 6 8 6 7 8 6 7 4 4 5 9 10 4 8 13 18 16 13 16 18 14 14 10 10 10 10 10 12 14 10 9 6 7 8 9 10 11 9 10 7 6 6
6 5 3 7 7 10 6 8 7 9 9 10 10 10 6 7 10 9 9 7 7 9 14 16 14 15 15 13 9 9 10 7 10 9 10 14 13 11 10 8 9 6 7 7 9 8 5 5 3
5 4 4 8 8 10 10 6 10 10 14 13 11 9 7 6 8 8 7 5 8 9 10 10 9 15 14 11 8 7 7 6 7 8 8 14 15 13 11 9 8 6 4 4 4 4 4 4 4
7 5 6 9 17 11 13 11 11 11 8 15 12 9 8 8 10 9 8 7 8 8 8 6 6 5 10 6 4 3 4 4 3 4 5 8 11 14 10 8 6 6 8 8 7 8 5 4 7
12 8 13 12 17 12 16 12 12 11 7 5 8 9 8 9 9 9 8 7 8 8 8 8 6 2 3 2 3 3 7 3 3 4 6 7 10 14 14 9 10 10 7 12 11 7 7 7 4
15 12 11 9 5 3 2 8 8 7 6 7 11 11 11 9 7 6 8 8 8 9 8 6 5 4 2 3 2 3 3 4 5 4 8 11 10 14 15 16 13 12 12 11 10 11 6 7 7
11 9 4 5 10 7 5 4 4 5 3 7 8 9 9 12 10 8 8 9 9 8 9 8 8 5 3 2 2 3 2 3 2 4 7 11 12 13 16 16 14 14 12 12 14 10 12 10 7
5 8 4 6 8 4 2 6 6 5 11 11 12 10 11 11 8 7 8 7 10 9 8 7 8 7 4 3 4 2 2 3 3 4 5 6 11 16 16 17 17 16 13 14 7 8 10 12 10
7 8 7 8 6 5 9 2 7 7 7 15 17 11 12 13 11 11 10 8 8 9 8 8 9 9 6 5 3 2 3 2 3 4 7 6 6 14 17 17 14 14 12 9 7 12 15 13 13
7 5 5 5 1 2 5 3 7 11 9 8 7 18 14 11 8 11 10 10 9 9 9 9 10 8 6 4 3 3 5 7 5 5 6 6 6 6 7 14 14 14 15 15 4 12 18 15 11
7 3 4 6 5 5 9 6 15 9 12 17 21 8 11 15 11 10 10 9 8 9 9 8 9 5 6 5 2 1 2 4 6 7 6 9 9 8 6 8 8 7 2 6 7 12 21 22 13
8 5 6 7 5 5 7 6 9 6 6 14 13 16 18 14 10 10 9 9 9 8 7 6 4 2 1 0 2 3 4 3 4 6 6 7 7 8 9 7 7 8 10 11 13 18 20 21 16
7 6 7 1 2 1 4 7 5 8 8 8 9 12 12 10 9 9 10 9 8 6 5 6 4 3 3 4 3 5 4 2 2 4 4 4 8 10 13 11 7 6 7 11 14 14 15 4 3
6 5 5 4 1 5 5 6 1 8 12 14 14 12 8 8 9 9 8 8 5 4 2 1 7 8 7 7 5 4 5 4 4 4 6 7 7 6 8 11 11 5 7 8 8 5 6 6 4
5 3 4 6 8 5 1 4 6 6 7 6 11 10 6 8 7 6 5 5 8 8 8 7 6 5 4 4 3 3 4 4 3 4 5 7 7 7 7 6 8 7 7 10 9 11 9 9 7
9 9 5 3 8 3 5 10 8 8 9 9 8 10 10 3 5 3 4 4 6 7 6 5 3 4 2 1 2 2 3 3 3 5 6 6 7 7 8 6 4 6 9 8 10 12 12 14 15
Wind_Direction
298 297 306 280 50 207 247 249 258 281 280 273 120 96 93 50 133 181 109 125 127 140 149 138 136 134 138 138 135 131 129 127 125 122 118 115 112 113 112 110 108 106 106 107 106 101 98 95 90
297 322 306 263 172 254 259 245 247 263 267 332 87 100 78 86 98 134 118 130 132 137 150 141 137 135 139 140 138 136 134 132 129 127 124 121 121 121 120 116 113 112 113 113 112 106 102 97 94
267 214 49 197 198 235 259 256 242 281 348 48 48 101 84 107 125 152 116 130 127 140 147 146 140 139 142 143 142 140 140 137 134 134 131 128 128 127 122 120 121 123 125 125 122 116 112 109 105
266 352 291 243 255 246 248 273 275 322 339 18 309 77 71 132 130 127 127 130 125 141 142 143 142 142 145 145 144 143 141 138 136 135 133 130 129 127 124 123 123 125 127 128 124 122 126 127 129
218 274 238 230 249 258 262 259 268 279 287 288 257 87 86 68 117 131 132 134 141 139 141 141 138 142 145 149 146 146 145 143 141 137 137 137 137 139 138 139 137 135 132 131 132 133 142 146 150
259 155 267 226 250 259 255 258 336 284 266 306 59 108 92 125 126 138 140 144 145 136 137 142 142 142 144 147 149 147 147 144 144 143 145 146 146 148 147 149 147 146 146 149 154 161 172 179 190
207 237 221 244 259 264 252 243 116 284 293 9 6 94 129 126 153 138 143 139 132 137 132 131 142 148 148 149 149 152 150 150 152 154 154 155 157 157 157 160 161 160 162 164 169 176 189 203 220
216 231 250 241 252 260 268 274 162 286 316 125 273 14 116 195 150 129 122 128 135 137 141 145 143 143 145 152 155 154 155 153 154 157 162 161 161 164 167 169 173 170 171 175 180 191 208 222 236
232 234 230 242 244 254 282 39 332 194 162 272 54 109 153 139 162 136 128 139 137 140 146 147 150 154 153 154 164 160 163 162 161 163 166 164 166 170 175 179 183 183 180 181 189 201 213 228 241
219 221 232 242 253 262 282 322 237 185 6 203 83 144 135 141 165 139 166 154 151 151 155 156 155 159 161 168 171 164 170 167 165 166 170 169 173 180 180 190 188 186 187 191 200 209 217 225 222
248 232 228 241 262 268 278 291 322 148 169 223 146 181 161 175 198 115 184 139 156 160 159 162 158 163 176 170 161 167 168 169 175 172 172 181 186 188 189 182 189 186 198 195 205 215 223 223 222
241 243 234 247 244 259 262 240 170 283 177 154 150 91 78 47 31 70 93 29 93 163 163 164 166 163 175 148 173 177 173 178 182 188 180 186 193 189 178 179 182 188 194 204 209 215 219 223 228
221 233 232 238 249 261 276 290 172 241 330 333 18 86 110 65 4 328 289 179 202 160 156 168 173 171 172 154 180 184 184 185 185 180 186 187 201 192 180 185 187 198 197 203 208 210 214 216 227
229 223 232 221 235 246 232 242 103 288 290 308 325 322 144 167 192 282 285 278 158 183 191 182 181 178 161 168 174 185 186 182 181 191 191 189 196 206 196 190 194 197 199 204 207 212 209 208 204
247 243 230 234 239 260 228 264 231 210 275 256 243 280 216 228 224 222 263 255 148 136 149 152 156 178 184 179 176 180 199 184 189 194 193 192 194 206 203 200 197 205 205 207 212 216 219 219 204
263 246 206 247 231 259 185 245 250 230 220 228 230 220 233 236 249 237 218 190 116 134 155 170 179 192 198 190 180 169 192 185 196 192 193 196 202 202 208 205 218 224 210 201 209 208 208 215 212
282 201 273 279 250 215 179 218 230 240 225 227 213 189 201 254 261 244 214 202 151 141 148 163 218 187 190 194 191 173 176 188 203 201 186 196 201 204 206 210 213 197 222 231 215 206 179 186 217
249 199 225 225 241 236 215 214 221 234 237 226 201 183 189 219 249 228 210 178 107 100 107 82 91 176 187 178 174 164 178 205 199 206 200 183 201 206 209 217 203 194 217 228 220 212 197 187 213
255 262 222 237 242 221 220 199 205 218 234 156 152 172 198 227 240 216 218 134 118 107 104 106 81 93 135 154 163 189 213 211 197 216 219 201 194 203 211 211 212 211 210 225 226 219 199 225 207
251 262 276 282 313 336 290 205 195 203 218 185 192 197 198 207 225 198 158 152 142 143 132 114 108 96 58 142 207 204 206 228 215 218 223 225 195 200 208 215 215 214 225 227 222 210 210 214 203
242 240 293 311 314 318 339 286 221 237 227 272 211 207 192 189 204 207 174 165 149 144 146 154 169 151 135 96 25 317 289 309 279 239 231 233 224 209 208 215 219 222 225 228 224 212 211 227 225
295 306 280 295 304 263 7 271 269 226 242 241 245 205 193 188 188 191 188 141 148 158 143 136 134 143 141 45 53 67 284 279 258 246 249 244 231 233 218 216 217 223 229 231 209 214 212 210 215
247 287 267 247 245 265 300 7 266 297 261 241 235 219 197 183 175 172 173 121 107 94 92 84 89 86 79 73 57 358 315 234 278 311 312 302 273 251 240 232 217 231 240 252 233 226 226 218 224
288 266 299 294 185 336 232 232 278 258 260 277 221 216 192 176 148 108 117 105 102 93 90 82 82 78 74 77 41 319 290 300 314 298 298 287 289 260 269 260 242 238 241 249 275 306 269 226 226
358 99 333 331 330 219 245 255 240 277 255 265 257 198 110 101 98 97 96 97 96 98 103 110 102 106 110 94 47 309 314 318 301 292 291 293 293 289 265 249 252 247 143 122 313 292 326 307 267
270 161 165 223 230 260 339 259 239 286 333 70 53 85 89 88 89 90 91 93 92 96 88 82 99 99 98 232 308 243 225 226 259 264 279 289 290 296 303 284 258 207 190 215 237 235 227 253 269
313 290 226 51 315 22 269 311 328 23 4 51 82 99 96 95 93 95 75 68 53 53 111 129 114 36 280 246 272 308 274 267 288 327 318 309 316 307 302 301 305 222 226 215 213 219 217 201 63
291 292 322 353 330 287 229 261 205 34 33 33 64 56 52 74 76 64 64 63 49 35 360 65 89 87 93 83 68 50 28 36 13 354 328 318 310 319 326 322 315 223 227 226 230 195 184 168 157
324 318 287 178 148 180 304 252 144 84 62 35 64 21 50 28 41 67 63 58 55 58 47 56 73 74 79 91 97 22 323 314 359 343 317 311 312 316 319 324 337 310 241 229 212 220 206 199 178
273 266 239 173 290 253 187 240 109 100 72 37 17 16 354 4 314 39 30 88 81 79 61 61 48 352 292 64 65 349 352 339 323 311 321 335 328 326 310 315 333 334 337 243 219 213 208 214 222